Temperature
16 16 17 17 17 17 17 17 17 16 16 16 15 15 15 14 14 14 14 14 14 14 14 13 13 13 13 13 13 13 13 13 13 14 15 15 15 16 16 15 15 15 15
16 17 17 17 17 17 17 17 17 17 17 16 16 15 15 14 14 14 14 14 14 14 13 13 13 13 13 13 13 13 13 13 13 14 14 15 15 15 15 15 15 15 15
17 17 17 17 17 17 17 17 17 17 17 16 16 16 15 15 14 14 14 14 14 14 13 13 13 12 12 12 13 13 13 13 13 13 14 14 14 15 15 15 15 15 15
17 17 17 17 17 17 17 17 17 17 17 16 16 16 15 15 15 14 14 14 14 14 13 13 13 13 12 12 12 12 13 13 13 13 13 13 14 14 15 15 15 15 15
17 17 17 17 17 17 17 17 17 17 17 16 16 16 16 15 15 15 14 14 14 14 14 13 13 13 13 12 12 12 12 12 12 12 12 13 13 13 14 15 15 15 15
16 16 16 16 16 16 16 16 16 16 16 16 16 16 16 15 15 15 15 14 14 14 14 14 13 13 13 13 12 12 12 12 12 12 12 12 12 13 13 13 14 14 14
15 15 15 15 16 16 16 16 16 16 16 15 15 15 15 15 15 15 15 14 14 14 14 13 13 13 13 13 13 12 12 12 12 12 12 12 12 12 12 12 13 13 14
14 14 14 14 14 14 14 14 14 14 14 14 14 14 14 14 15 15 15 14 14 14 14 13 13 13 13 13 13 13 13 13 12 12 12 12 11 12 12 12 12 12 13
12 12 12 12 13 13 13 13 13 13 13 13 13 13 13 13 14 14 14 14 14 14 14 13 13 13 13 13 13 13 13 13 13 12 12 12 11 11 11 11 12 12 12
12 12 11 11 11 11 11 11 11 12 12 12 12 12 12 12 13 13 13 13 14 14 13 13 13 13 13 13 13 13 13 13 13 13 12 12 11 11 11 11 11 11 11
12 11 11 11 11 11 11 11 11 11 11 11 11 11 11 11 12 12 12 13 13 13 13 13 13 13 13 13 13 13 13 13 13 13 13 12 12 12 11 11 11 11 11
12 12 11 11 11 11 11 11 11 11 11 11 11 11 11 11 11 11 11 11 12 12 12 12 12 12 12 12 12 13 13 13 13 13 13 12 12 12 12 11 11 11 11
12 12 11 11 11 11 11 11 11 11 11 11 11 11 11 11 11 11 11 11 11 11 11 11 12 12 12 12 12 12 12 12 12 12 12 12 12 11 11 11 11 11 11
12 12 11 11 11 11 11 11 11 11 10 10 10 10 10 11 11 11 11 11 11 11 11 11 11 11 11 12 12 12 12 12 12 12 11 11 11 11 11 10 10 10 10
13 12 11 11 11 11 11 11 10 10 10 10 10 10 10 10 10 10 10 10 10 10 10 10 11 11 11 11 11 11 11 11 11 11 11 10 10 10 10 10 10 10 10
13 12 12 11 11 11 11 11 10 10 10 10 10 10 10 10 10 10 10 10 10 10 10 10 10 10 10 10 10 10 10 10 10 10 10 10 10 10 10 10 10 10 10
13 12 12 11 11 11 11 10 10 10 9 9 9 10 10 10 10 10 9 9 9 9 9 9 10 10 10 10 10 10 10 10 10 10 10 10 10 10 10 9 9 9 9
13 12 12 11 11 11 11 10 10 10 9 9 9 9 9 10 10 10 10 10 10 9 9 9 9 9 10 10 10 10 10 10 10 10 9 9 9 9 9 9 9 9 9
14 13 12 11 11 11 11 10 10 10 9 9 9 9 9 9 9 9 10 9 9 9 9 9 9 9 9 9 9 9 9 9 9 9 9 9 9 9 9 8 8 8 8
14 13 12 12 11 11 11 10 10 10 10 9 9 9 9 9 9 9 9 9 8 8 8 8 8 9 9 9 9 9 9 9 8 8 8 8 8 8 8 8 8 8 8
14 13 12 11 11 11 11 10 10 10 10 10 9 9 9 9 9 8 8 8 8 8 8 8 8 8 8 8 8 8 8 8 8 8 8 8 8 8 8 8 8 8 8
14 13 12 11 11 11 11 11 10 10 10 9 9 9 8 8 8 8 8 7 7 7 7 7 7 7 7 7 7 7 7 7 7 7 7 7 7 7 7 7 7 7 7
14 13 12 11 11 11 11 11 10 10 10 9 9 8 8 8 8 7 7 7 7 7 7 7 7 7 7 7 7 7 7 7 7 7 7 7 7 7 7 7 7 7 7
13 13 12 11 11 11 11 11 10 10 10 9 9 8 8 8 8 7 7 7 7 7 7 7 7 7 7 7 7 7 7 7 7 7 6 6 6 6 6 6 6 6 6
13 12 12 11 11 11 11 11 10 10 10 9 9 8 8 8 7 7 7 7 8 8 8 8 8 8 8 8 8 7 7 7 7 7 6 6 6 6 6 6 5 5 5
13 12 12 11 11 11 11 11 10 10 10 9 9 8 8 8 7 8 8 8 8 8 8 8 8 8 8 8 8 8 8 8 7 7 6 6 6 6 5 5 5 5 4
Wind_Speed
3 2 2 2 3 4 4 4 4 4 5 5 5 5 5 5 4 3 3 2 3 3 4 5 6 6 6 6 6 6 7 7 8 5 3 3 5 6 7 11 13 13 13
3 3 2 2 3 3 3 3 4 5 5 6 5 5 5 5 5 5 4 3 3 3 4 4 5 5 7 6 7 8 8 8 8 7 4 4 6 5 4 6 8 11 12
2 3 2 1 2 2 2 3 3 4 4 5 5 6 6 6 6 6 5 5 4 4 4 4 5 5 6 6 7 8 8 8 8 7 5 4 3 2 2 3 4 6 9
3 2 2 2 2 2 2 2 3 4 4 5 5 6 6 6 6 6 6 6 5 5 5 5 4 5 6 6 6 7 7 7 7 6 5 3 3 2 2 3 4 6 6
1 2 2 1 1 2 2 2 2 3 4 5 5 5 5 5 6 7 7 7 6 5 4 4 4 5 6 5 4 4 5 5 5 5 4 4 4 3 4 4 5 3 4
7 7 6 5 4 3 3 3 2 2 2 3 5 5 5 5 7 9 8 7 7 6 5 4 4 4 5 6 6 6 6 5 5 4 3 4 5 5 4 4 4 3 3
10 9 9 8 8 7 6 6 6 4 3 3 3 3 5 6 8 8 9 7 7 7 6 5 4 4 5 4 5 6 7 9 8 4 4 4 4 4 5 5 5 4 4
9 9 9 9 9 8 8 8 8 6 6 6 6 5 4 5 7 7 7 5 5 6 6 6 6 5 4 5 5 5 6 6 7 6 5 5 3 3 3 3 4 4 3
8 8 8 8 8 8 9 8 7 7 7 7 6 7 6 7 9 7 3 2 2 3 4 5 6 5 6 7 6 6 7 7 9 11 10 8 7 7 5 3 3 3 3
7 7 7 7 7 8 8 7 6 6 7 7 8 8 8 8 13 11 5 2 1 1 1 2 5 6 6 6 7 7 7 7 5 5 7 8 6 7 8 6 4 4 2
5 5 6 6 6 6 6 6 6 7 7 8 7 7 8 10 12 15 11 4 1 0 1 1 2 5 6 6 6 7 8 5 3 4 3 3 2 2 2 2 3 3 4
3 5 5 6 6 5 6 6 7 7 8 8 8 8 7 8 10 12 13 10 5 1 2 2 3 5 6 7 4 7 8 5 3 3 2 2 1 1 0 0 1 2 3
2 3 4 5 5 5 5 6 5 6 6 6 7 7 8 7 8 13 12 11 9 4 3 5 7 7 5 3 3 5 5 5 4 3 3 2 1 1 1 1 2 2 2
2 3 3 4 4 4 4 4 4 5 5 6 6 7 7 7 7 7 7 6 6 4 3 4 4 2 2 2 3 3 3 4 3 3 3 2 2 1 1 1 1 1 2
2 2 3 3 4 3 3 3 3 2 3 4 4 5 6 7 9 12 8 6 5 4 4 2 1 1 2 2 3 3 3 4 3 3 3 2 2 1 1 1 0 0 0
3 2 1 2 3 3 2 2 1 1 4 5 6 6 5 7 12 11 11 11 10 6 1 1 1 1 2 2 3 3 3 4 3 3 3 2 2 0 1 1 1 1 2
4 2 0 1 2 2 2 3 3 4 4 5 7 10 9 11 11 11 11 12 13 9 4 4 3 4 4 4 4 4 3 3 3 4 3 3 2 1 1 1 1 2 2
4 3 3 1 1 1 2 3 3 3 4 4 6 9 12 13 14 14 12 9 9 9 7 6 6 6 6 6 5 5 5 4 4 4 4 3 3 2 2 2 2 2 3
5 3 3 2 1 2 2 3 3 4 4 4 4 6 10 10 12 15 12 8 8 8 8 8 8 7 7 6 6 6 6 5 5 4 4 4 3 2 2 2 3 4 3
4 6 5 3 2 2 2 3 3 4 4 5 5 5 5 6 7 8 8 7 7 7 7 8 8 8 7 7 6 6 6 6 6 5 4 4 3 3 3 4 4 4 4
4 5 6 4 3 3 2 2 2 3 4 4 4 5 6 5 6 6 6 6 6 7 7 7 7 7 7 7 6 7 7 5 5 5 4 4 3 3 3 3 4 4 4
4 4 4 3 3 2 3 3 3 3 3 4 3 4 7 5 5 5 5 6 6 6 6 5 6 6 6 6 6 5 5 5 4 4 4 4 4 3 3 3 3 4 4
5 5 4 3 3 3 4 3 3 3 3 3 3 3 4 4 4 4 5 5 5 6 6 6 5 5 5 6 5 4 4 3 4 4 4 4 3 3 3 3 4 4 4
4 5 5 4 3 3 3 3 3 3 3 3 2 2 2 2 3 4 4 4 5 5 7 7 6 6 8 7 7 7 7 7 6 5 4 3 3 3 3 4 4 5 5
3 4 5 5 4 4 4 4 3 3 3 3 2 2 2 2 2 3 4 4 5 5 6 7 7 7 8 9 10 10 12 12 11 9 7 4 5 5 5 5 5 5 6
4 4 4 4 4 5 5 4 4 4 3 3 2 2 3 3 3 3 3 3 4 4 4 6 8 8 9 9 10 11 12 13 14 13 11 7 6 6 5 5 6 6 6
Wind_Direction
201 177 148 145 162 172 179 185 185 183 180 182 179 173 176 184 190 196 223 222 220 224 217 217 224 213 213 211 207 207 210 208 232 246 236 228 205 212 206 207 214 215 219
175 143 131 137 155 165 176 188 189 191 190 192 188 189 191 187 187 194 213 212 214 226 230 230 236 226 220 215 214 217 216 211 219 238 235 219 222 213 195 194 206 218 220
156 143 150 174 197 206 211 217 209 207 202 200 197 204 207 196 191 197 202 210 218 226 227 228 236 228 229 222 220 220 218 216 215 225 230 205 197 170 167 192 200 215 222
179 171 175 205 230 245 239 231 228 227 223 221 220 221 220 209 197 195 196 204 213 226 232 236 237 229 233 230 227 224 216 212 210 218 220 198 187 169 170 189 208 211 220
75 29 352 344 342 296 280 280 263 243 234 225 228 229 228 223 214 200 197 199 202 213 228 239 244 241 240 233 226 219 210 210 208 214 210 193 191 182 203 196 213 193 218
53 39 25 23 24 6 343 343 335 311 280 241 237 236 237 241 240 221 199 194 194 197 207 218 235 245 248 243 242 227 207 201 206 213 218 220 214 202 183 183 183 175 240
50 42 37 35 35 27 26 30 21 10 3 342 313 283 272 275 277 266 227 195 194 196 197 198 208 218 227 234 250 249 233 225 216 204 219 228 217 202 184 187 195 199 217
41 36 31 32 32 27 31 30 21 18 20 14 6 353 331 322 315 294 275 217 200 197 196 197 202 218 219 216 224 238 241 239 232 226 223 223 211 197 194 200 198 210 220
30 27 24 27 31 29 28 22 17 22 25 22 19 18 11 355 357 344 314 178 185 193 193 197 203 220 236 222 212 233 247 250 242 234 230 228 225 222 220 226 221 221 237
12 15 19 26 32 29 23 19 16 22 23 24 27 23 22 13 11 15 38 92 118 146 185 211 222 232 249 236 207 216 238 248 229 226 231 239 238 243 250 244 235 227 220
4 21 24 24 32 32 32 27 24 27 29 25 20 17 20 18 15 20 28 35 34 320 278 263 258 263 275 272 222 210 226 224 206 207 206 211 216 221 237 242 228 220 219
20 31 25 21 25 29 35 32 31 31 32 23 14 11 10 9 12 12 17 18 14 354 318 311 297 296 294 291 249 223 224 198 164 161 168 175 177 187 190 231 259 254 250
12 18 13 16 21 22 31 30 31 32 31 20 13 8 2 360 3 11 12 10 11 5 330 317 311 303 300 291 258 215 174 155 153 157 166 166 145 118 88 43 21 13 355
312 336 356 8 7 13 24 28 35 31 25 17 10 4 359 358 0 359 357 355 355 354 338 328 341 22 64 84 80 103 124 141 144 146 138 116 94 89 79 43 33 17 8
270 312 346 358 355 357 18 25 22 23 7 357 353 352 353 353 345 344 347 342 331 312 314 310 332 81 89 84 81 87 94 102 98 96 106 100 85 76 44 4 344 305 295
241 280 340 354 351 360 10 14 358 313 329 340 344 347 334 330 333 345 351 352 348 336 341 13 21 68 98 103 104 92 85 91 89 99 102 103 107 99 314 302 272 263 278
215 227 161 24 13 10 28 36 14 351 343 346 353 360 4 1 6 7 7 3 6 20 57 50 43 54 72 80 82 82 82 85 91 97 97 92 84 50 347 327 321 303 295
196 189 154 117 68 49 58 55 41 26 7 351 352 9 20 28 29 27 24 26 26 32 42 46 47 52 59 63 65 72 77 76 73 73 71 62 49 35 7 338 323 304 298
175 164 149 137 119 109 88 67 54 47 39 13 1 3 13 25 34 32 34 42 40 38 39 45 46 49 52 54 56 60 62 61 60 60 54 45 33 25 360 331 317 304 294
173 168 150 136 122 119 101 81 63 52 46 39 32 13 8 36 42 33 35 38 42 43 43 45 45 46 47 48 49 50 53 50 45 42 32 24 14 4 346 334 327 318 307
156 152 141 123 131 143 135 116 93 71 61 58 45 40 58 59 52 41 38 37 39 41 44 46 44 39 37 38 39 40 41 37 29 18 7 357 351 344 334 328 325 323 319
145 138 133 136 137 138 138 135 122 97 82 80 62 48 52 56 49 43 41 43 45 45 42 49 50 42 35 32 28 27 24 18 7 354 341 335 333 338 345 351 351 351 354
145 141 137 138 138 135 128 132 135 125 112 101 91 68 53 48 42 41 42 46 47 42 36 38 41 34 28 26 21 14 4 347 328 317 319 326 341 358 14 17 15 13 14
161 158 154 151 145 141 145 154 157 151 145 136 124 111 99 76 55 47 46 49 52 44 37 35 32 25 22 19 16 14 7 353 336 322 325 344 8 24 35 37 31 23 17
176 167 164 164 160 158 159 165 171 170 164 161 157 152 141 123 97 74 65 64 61 47 35 29 24 21 19 20 20 21 24 29 31 30 31 39 47 48 47 43 39 34 30
183 174 171 169 167 166 170 177 182 180 176 171 165 160 149 138 124 105 92 85 71 48 32 23 21 23 21 19 18 23 30 36 40 45 51 52 51 48 48 48 46 44 41
Height
1498 1500 1502 1503 1505 1507 1507 1507 1508 1508 1508 1509 1509 1509 1509 1509 1509 1509 1509 1509 1509 1509 1509 1510 1511 1512 1514 1516 1518 1520 1522 1524 1525 1527 1529 1531 1533 1534 1536 1537 1539 1540 1541
1497 1500 1501 1503 1504 1505 1505 1505 1505 1505 1506 1506 1507 1507 1507 1507 1508 1508 1508 1508 1507 1507 1507 1506 1507 1508 1509 1511 1513 1514 1517 1519 1521 1522 1525 1526 1528 1529 1531 1533 1534 1536 1537
1498 1499 1500 1502 1503 1503 1503 1503 1503 1503 1503 1503 1504 1505 1506 1506 1506 1506 1506 1506 1506 1505 1505 1504 1504 1504 1505 1507 1508 1510 1512 1514 1516 1518 1519 1521 1523 1524 1526 1528 1529 1531 1533
1496 1497 1498 1499 1500 1501 1501 1501 1501 1501 1501 1501 1501 1502 1503 1503 1503 1504 1504 1504 1504 1504 1503 1502 1502 1502 1503 1503 1504 1506 1507 1509 1511 1512 1514 1516 1517 1519 1520 1522 1525 1526 1528
1494 1495 1496 1496 1497 1498 1498 1498 1498 1498 1498 1498 1498 1498 1499 1500 1500 1501 1502 1502 1503 1503 1502 1502 1501 1501 1501 1501 1502 1503 1504 1505 1506 1508 1509 1511 1512 1514 1516 1518 1520 1521 1522
1494 1494 1494 1494 1494 1494 1495 1495 1495 1494 1494 1494 1495 1495 1495 1496 1497 1498 1499 1499 1500 1500 1501 1501 1500 1500 1501 1501 1501 1502 1502 1503 1504 1505 1505 1507 1507 1509 1511 1513 1515 1516 1517
1493 1493 1492 1492 1492 1491 1491 1491 1491 1491 1491 1491 1491 1491 1491 1492 1493 1494 1495 1496 1497 1498 1498 1499 1499 1500 1500 1500 1500 1501 1501 1502 1502 1503 1503 1504 1504 1505 1506 1508 1509 1510 1512
1495 1493 1492 1491 1491 1491 1490 1489 1489 1488 1487 1487 1487 1487 1487 1488 1489 1490 1491 1492 1493 1494 1495 1496 1497 1498 1498 1499 1499 1499 1500 1500 1500 1501 1501 1501 1502 1502 1503 1504 1504 1506 1507
1497 1496 1494 1493 1492 1491 1490 1489 1488 1487 1486 1485 1485 1485 1485 1485 1485 1486 1487 1488 1489 1490 1491 1492 1494 1495 1496 1497 1497 1498 1498 1499 1499 1498 1499 1499 1499 1500 1500 1500 1501 1502 1502
1501 1499 1498 1496 1495 1493 1492 1491 1489 1488 1487 1486 1485 1484 1483 1483 1483 1483 1483 1484 1485 1486 1487 1488 1489 1491 1493 1494 1495 1496 1496 1497 1497 1497 1497 1496 1497 1497 1497 1497 1498 1498 1499
1505 1503 1501 1499 1498 1496 1495 1493 1492 1491 1489 1487 1486 1484 1483 1482 1482 1481 1481 1481 1482 1483 1483 1484 1485 1487 1488 1490 1491 1493 1494 1494 1494 1495 1495 1495 1495 1495 1495 1495 1495 1496 1496
1509 1507 1505 1503 1501 1500 1498 1496 1494 1492 1491 1489 1487 1485 1484 1482 1481 1480 1480 1480 1480 1480 1481 1481 1482 1483 1484 1486 1487 1489 1490 1491 1492 1492 1493 1494 1494 1494 1494 1494 1494 1494 1495
1512 1510 1508 1506 1504 1502 1500 1498 1496 1494 1492 1489 1487 1486 1484 1483 1481 1480 1479 1479 1478 1478 1478 1478 1478 1479 1480 1481 1483 1485 1487 1488 1489 1490 1491 1492 1492 1493 1493 1494 1494 1494 1494
1513 1511 1510 1508 1506 1504 1502 1500 1497 1495 1493 1491 1489 1487 1485 1484 1481 1480 1478 1477 1476 1475 1475 1475 1475 1475 1476 1478 1480 1482 1483 1485 1486 1488 1489 1490 1491 1492 1492 1493 1493 1493 1493
1514 1512 1510 1509 1507 1505 1502 1500 1498 1496 1494 1493 1491 1489 1487 1485 1483 1481 1478 1476 1474 1473 1472 1472 1472 1473 1474 1475 1477 1479 1481 1483 1485 1487 1488 1489 1490 1491 1491 1492 1492 1492 1491
1514 1512 1511 1509 1507 1505 1503 1501 1499 1497 1496 1494 1493 1491 1489 1487 1485 1482 1480 1476 1473 1471 1470 1471 1472 1473 1474 1475 1477 1479 1481 1483 1485 1487 1488 1489 1490 1490 1491 1491 1490 1490 1489
1514 1512 1511 1509 1508 1506 1504 1502 1500 1499 1497 1496 1495 1494 1492 1490 1487 1485 1482 1479 1475 1472 1472 1472 1473 1473 1475 1476 1478 1480 1482 1484 1485 1487 1488 1489 1489 1489 1489 1489 1488 1488 1487
1513 1512 1511 1510 1509 1507 1505 1503 1501 1499 1498 1497 1497 1495 1494 1492 1490 1487 1485 1483 1479 1477 1476 1476 1475 1476 1477 1478 1480 1481 1483 1485 1486 1487 1488 1488 1488 1488 1487 1487 1486 1485 1484
1512 1511 1511 1510 1509 1508 1507 1505 1503 1501 1499 1499 1498 1497 1496 1494 1493 1491 1488 1486 1484 1482 1481 1480 1480 1480 1481 1481 1482 1483 1485 1486 1486 1487 1487 1487 1487 1486 1485 1484 1483 1482 1481
1511 1511 1511 1510 1510 1509 1508 1507 1505 1503 1502 1501 1500 1500 1498 1497 1495 1493 1491 1490 1488 1487 1486 1485 1485 1484 1484 1485 1485 1485 1486 1486 1486 1486 1486 1486 1485 1484 1483 1482 1481 1479 1478
1510 1510 1510 1510 1510 1510 1509 1508 1507 1506 1505 1504 1503 1502 1501 1499 1497 1495 1494 1493 1491 1491 1490 1489 1488 1487 1487 1487 1486 1486 1486 1486 1486 1485 1485 1484 1483 1482 1481 1480 1479 1477 1475
1510 1510 1510 1510 1510 1510 1510 1509 1509 1508 1507 1506 1505 1504 1503 1501 1499 1497 1496 1495 1494 1493 1492 1491 1490 1489 1488 1487 1486 1486 1485 1484 1484 1483 1483 1482 1482 1481 1480 1478 1477 1475 1473
1509 1509 1509 1509 1510 1510 1510 1510 1509 1509 1508 1508 1507 1506 1505 1503 1501 1499 1498 1496 1495 1494 1493 1492 1490 1489 1488 1486 1485 1484 1483 1482 1481 1481 1480 1480 1480 1479 1478 1476 1475 1473 1471
1508 1508 1508 1508 1509 1510 1510 1510 1510 1510 1509 1508 1508 1507 1506 1505 1503 1501 1499 1498 1496 1495 1494 1492 1490 1489 1487 1486 1485 1483 1482 1480 1479 1478 1478 1478 1478 1477 1476 1474 1473 1471 1469
1508 1508 1507 1508 1508 1509 1510 1510 1510 1510 1509 1509 1508 1508 1507 1506 1504 1502 1501 1499 1497 1496 1495 1493 1491 1490 1489 1487 1486 1484 1482 1481 1479 1478 1477 1476 1476 1475 1474 1473 1471 1469 1467
1507 1507 1507 1507 1507 1508 1509 1510 1510 1510 1510 1509 1509 1508 1507 1506 1505 1503 1502 1500 1499 1497 1496 1495 1493 1492 1491 1489 1488 1486 1484 1482 1479 1478 1476 1476 1475 1474 1473 1472 1470 1469 1467